STARLINK-32599, 62048

Orbit data source: Space-Track

STARLINK-32599, 62048 is a payload satellite owned by SpaceX/Seattle (US) in LEO that was launched on Thu, 21 Nov 2024 UTC via an FALCON 9 launch vehicle from the Air Force Eastern Test Range (AFETR). Payloads include a variety of satellites, spacecraft, and rockets equipped with specific instruments for various scientific and technological missions. These include communications satellites like Starlink; space stations such as the ISS; scientific satellites like the Hubble; Earth observation satellites from companies like Planet Labs, Umbra, and HawkEye 360; GPS; miniature CubeSats for education and research; and military/defense satellites.

Loading next visibility...
STARLINK-32599 details
Identifier
62048, 2024-216S
Orbit
LEO
Last TLE update6 hours ago
Origin
Flag of USSpaceX/Seattle (US)
ManufacturerSpaceX/Seattle
MissionOperational spacecraft
Bus & MotorSTARLINK V2M, Unknown motor
Mass730 kg wet, ~700 kg dry
Launch date (UTC)
2024-11-21 (1 month ago)
Launch vehicle
FALCON 9
Launch site
Air Force Eastern Test Range (AFETR)
Object type
Payload
Rocket body
Debris
Shape & HBRUnknown
Radar Cross SectionLarge (>1 m²)

Expand to show TLE details & history

TLE from 6 hours ago
0 STARLINK-32599
1 62048U 24216S   24361.16668981  .00103010  00000-0  24434-2 0  9990
2 62048  42.9993 233.6020 0001765 260.9148 315.5686 15.40658278  6548
Epoch: 2024-12-26T04:00Z
Definitive object data (Epoch: 2024-12-26T04:00:01.999Z)
Latitude-24.08126°
Longitude-73.0911°
Altitude449.121 km
Speed7.644 km/s
True Right ascension05h 28m 16s
True Declination-23° 56' 51"
Sunlit
Object was in full shadow at TLE epoch
Visualization TLE readout
Latitude19.28142°
Longitude-124.88846°
Altitude443.735 km
Speed7.649 km/s
Apparent Right ascension00h 01m 27s
Apparent Declination-11° 09' 40"
Sunlit
Object is in full shadow
Visualization observer readout
Local Sidereal Time09:17:36
Azimuth296.944° NW
Elevation-43.823°
Doppler factor1
Orbital elements
Apogee altitude447.326 km
Perigee altitude444.917 km
Semi-major axis6,824.259 km
Eccentricity0.0001765
Inclination42.9993°
RAAN233.602°
Arg. of periapsis260.9148°
True anomaly315.55444°
Mean anomaly315.5686°
Eccentric anomaly315.56152°
Mean motion3.84999 °/min
BSTAR0.0024434
Orbital period93.51 mins
Loading maneuver chart data...
Loading historical data...
Loading historical data...
Loading historical data...
Loading historical data...
Loading historical data...
Loading historical data...
Loading historical data...

STARLINK-32599 Visibility forecast

Observer location: undefined°, undefined

Span
Click to sort rows by Start time (UTC) header in descending order
Start Az.
Max El. time (UTC)
Max El. Az.
Max El.
End time (UTC)
End Az.
5 mins2024-12-26 18:49:30.489Z204.614° SW2024-12-26 18:51:30.489Z164.595° S24.93°2024-12-26 18:54:30.489Z92.343° ESE
5 mins2024-12-26 20:27:30.489Z261.385° W2024-12-26 20:29:30.489Z293.712° NW42.258°2024-12-26 20:32:30.489Z69.004° E
5 mins2024-12-26 22:06:30.489Z299.251° NW2024-12-26 22:08:30.489Z25.083° NE36.319°2024-12-26 22:11:30.489Z79.22° E
5 mins2024-12-26 23:44:30.489Z285.521° WNW2024-12-26 23:46:30.489Z155.917° SSE44.493°2024-12-26 23:49:30.489Z113.012° SE
|